#timestamp,LO_Frequency,Hit,StdDev 
1549216815.8,286047001.2,N
1549216835.6,286046996.9,N
1549216855.5,286046999.0,N
1549216875.3,286046998.5,N
1549216895.2,286046998.2,N
1549216915.9,286046999.2,N
1549216935.7,286046997.7,N
1549216955.6,286046997.7,N
1549216975.4,286046998.0,N
1549216995.2,286046997.2,N
1549217015.1,286046997.4,N
1549217016.0,286046997.4,N
1549217035.8,286046995.5,N
1549217055.7,286046995.0,N
1549217075.5,286046996.0,N
1549217095.3,286046993.4,N
1549217145.2,286046996.1,E
1549217155.1,286046997.5,N
1549217175.9,286046999.2,P
1549217195.7,286046999.5,N
1549217335.7,286046998.9,P
1549217355.5,286046998.3,P
1549217375.3,286046997.1,P
1549217395.2,286046996.8,Y
1549217415.0,286046998.9,P
1549217415.9,286046998.9,P
1549217435.8,286046998.9,P
1549217455.6,286046998.6,Y
1549217475.5,286047000.4,P
1549217495.3,286046999.7,N
1549217515.1,286047000.5,N
1549217535.9,286047000.7,N
1549217555.7,286046998.2,N
1549217575.5,286047000.5,N
1549217595.4,286046999.7,N
1549217615.2,286047000.7,N
1549217635.1,286047000.0,N
1549217636.0,286047000.0,N
1549217655.8,286047000.7,N
1549217675.6,286047000.5,N
1549217695.5,286047000.4,N
1549217715.3,286047002.4,Y
1549217735.2,286047000.2,P
1549217755.9,286047000.1,N
1549217775.7,286047001.9,P
1549217795.6,286047002.2,N
1549217845.4,286046999.7,E
1549217855.4,286047001.6,N
1549217875.2,286047002.2,P
1549217895.0,286047001.8,P
1549217895.9,286047001.8,Y
1549217915.8,286047000.6,P
1549217935.6,286047001.0,N
1549217955.5,286046998.3,P
1549217975.3,286046999.5,N
1549217995.1,286046996.9,N
1549218015.9,286046999.6,N
1549218035.7,286046996.9,N
1549218055.5,286046996.5,N
1549218075.4,286046998.7,N
1549218095.2,286046999.4,N
1549218115.1,286046999.3,N
1549218116.0,286046999.3,N
1549218135.8,286046999.5,N
1549218155.6,286046999.4,N
1549218175.5,286046996.9,N
1549218195.3,286046996.8,N
1549218215.1,286046996.6,N
1549218235.9,286046998.2,N
1549218255.7,286047000.8,N
1549218275.6,286046998.8,N
1549218295.4,286046998.4,N
1549218315.2,286046999.0,N
1549218335.1,286046999.3,N
1549218336.0,286046999.3,N
1549218355.8,286046999.2,N
1549218375.6,286046996.5,N
1549218395.5,286046998.8,N
1549218415.3,286046998.9,N
1549218435.2,286046999.2,N
1549218455.9,286046998.3,N
1549218475.7,286046998.4,N
1549218495.6,286046999.1,N
1549218515.4,286046996.7,N
1549218535.3,286046994.9,Y
1549218555.1,286046999.5,P
1549218556.0,286046999.5,N
1549218575.8,286047001.1,N
1549218595.7,286046998.8,N
1549218615.5,286046999.1,N
1549218635.3,286046999.3,N
1549218655.2,286046999.6,N
1549218675.0,286046996.9,Y
1549218675.9,286046996.9,P
1549218695.8,286047001.1,N
1549218715.6,286047000.6,N
1549218735.4,286047000.5,N
1549218755.3,286046999.7,N
1549218775.1,286047002.8,N
1549218795.8,286047000.9,N
1549218815.7,286047001.4,N
1549218835.5,286047001.4,N
1549218855.4,286047001.9,N
1549218875.2,286047003.6,N
1549218895.0,286047016.6,Y
1549218895.9,286047016.6,P
1549218915.8,286047019.1,N
1549218935.6,286047015.9,N
1549218955.5,286047015.3,N
1549218975.3,286047011.3,N
1549218995.1,286047010.7,N
1549219015.9,286047008.9,N
1549219035.7,286047006.4,N
1549219055.5,286047005.5,N
1549219075.4,286047003.2,N
1549219095.2,286047001.4,N
1549219115.1,286047002.3,N
1549219116.0,286047002.3,N
1549219135.8,286047002.7,N
1549219155.6,286047000.3,N
1549219175.5,286047000.8,N
1549219195.3,286047000.0,N
1549219215.1,286046999.8,N
1549219235.9,286047001.6,N
1549219255.7,286047001.9,N
1549219275.6,286047002.6,N
1549219295.4,286047000.7,N
1549219315.2,286047000.4,N
1549219335.1,286047001.1,N
1549219336.0,286047001.1,N
1549219355.8,286046998.5,N
1549219375.7,286046998.8,N
1549219395.5,286046999.4,N
1549219415.3,286046998.1,N
1549219435.2,286047001.0,N
1549219455.9,286047002.7,N
1549219475.7,286047000.1,N
1549219495.6,286047011.7,N
1549219515.4,286047012.4,N
1549219535.3,286047006.3,N
1549219555.1,286047003.1,N
1549219556.0,286047003.1,N
1549219575.8,286047003.7,N
1549219595.7,286047003.5,N
1549219615.5,286047001.7,N
1549219635.3,286046999.9,N
1549219655.2,286047002.3,N
1549219675.0,286047000.8,N
1549219675.9,286047000.8,N
1549219695.8,286046999.6,N
1549219715.6,286046996.8,N
1549219735.4,286046997.4,N
1549219755.3,286046997.3,N
1549219775.1,286046997.5,N
1549219795.9,286046996.9,N
1549219815.7,286046997.2,N
1549219835.5,286046998.9,N
1549219855.4,286046999.2,N
1549219875.2,286046997.0,N
1549219895.0,286046997.6,N
1549219896.0,286046997.6,N
1549219915.8,286046997.3,N
1549219935.6,286046997.8,N
1549219955.5,286046998.0,N
1549219975.3,286046998.0,N
1549219995.1,286046995.6,N
1549220015.9,286046995.0,N
1549220035.7,286046995.0,N
1549220055.6,286046999.5,N
1549220075.4,286046996.6,N
1549220095.2,286046997.0,N
1549220115.1,286046997.8,N
1549220116.0,286046997.8,N
1549220135.8,286046997.8,N
1549220155.6,286046993.7,Y
1549220175.5,286046997.0,P
1549220195.3,286046999.6,N
1549220215.2,286046999.1,N
1549220235.9,286046996.9,Y
1549220255.8,286046999.1,P
1549220275.6,286047000.8,N
1549220295.4,286046999.8,N
1549220315.3,286047002.4,N
1549220335.1,286046999.7,N
1549220355.8,286047002.0,N
1549220375.7,286047008.0,Y
1549220395.5,286047011.8,P
